Location: Slidell
(30.2789°N, 89.7378°W)
Time: 11:35:09
(UTC-05:00)

Daily predictions for brighter satellites

Satellite Brightness Start Highest point End
(mag) Time Altitude Azimuth Time Altitude Azimuth Time Altitude Azimuth
Cosmos 1709 Rocket 4.0 20:10:13 10° N 20:16:27 77° E 20:22:35 10° S
Cosmos 1536 Rocket 3.5 20:14:19 10° S 20:18:35 67° E 20:22:52 10° NNE
Cosmos 1743 3.6 20:22:20 10° NNE 20:25:50 31° E 20:29:21 10° SE
GPS 2-14 Rocket1 4.3 20:24:18 10° SW 20:27:00 19° S 20:29:43 10° SE
Cosmos 1025 Rocket 4.4 20:25:00 10° SE 20:28:04 20° E 20:31:10 10° NE
Meteor 1-13 Rocket 4.3 20:28:24 10° S 20:34:19 76° E 20:40:13 10° NNE
USA 186 1.9 20:35:14 10° SSE 20:38:21 54° ENE 20:41:24 10° N
CZ-2D R/B 3.2 20:35:41 10° SSE 20:39:29 90° E 20:43:19 10° NNW
Cosmos 1544 Rocket 4.1 20:35:39 10° NNW 20:39:54 61° W 20:44:10 10° S
H-2A R/B 3.9 20:39:19 10° S 20:42:50 42° W 20:46:21 10° NNW
Cosmos 1666 3.5 20:39:49 10° NNE 20:43:13 32° E 20:45:57 14° SE
CENTAUR R/B 3.2 20:36:06 10° NNW 20:44:16 80° ENE 20:52:35 11° SSE
Cosmos 1656 Rocket 3.6 20:38:47 10° NNW 20:44:16 80° ENE 20:49:48 10° SSE
Cosmos 1975 3.6 20:41:17 10° NNW 20:45:16 55° W 20:49:16 10° S
Cosmos 1833 Rocket 4.1 20:42:26 12° SE 20:45:24 17° E 20:48:57 10° ENE
Cosmos 1238 Rocket 4.3 20:40:55 10° SSE 20:47:23 52° E 20:53:42 10° NNE
ISS -0.1 20:47:25 10° NW 20:47:54 10° NNW 20:48:24 10° NNW
OAO 2 Rocket 4.0 20:44:47 10° WNW 20:49:34 50° N 20:54:24 10° E
Resurs 1-3 4.0 20:49:04 10° S 20:53:24 64° W 20:57:46 10° NNW
Aureole 3 Rocket 3.7 20:49:32 10° S 20:56:17 88° W 21:01:02 10° N
Cosmos 2074 Rocket 4.0 20:52:51 10° N 20:59:06 71° E 21:05:21 10° SSE
ASTEX 1 4.0 21:00:40 18° SE 21:03:45 39° E 21:08:16 10° NNE
Cosmos 1939 Rocket 3.0 21:01:45 20° SE 21:04:09 52° ENE 21:07:54 10° N
Meteor 2-4 Rocket 3.8 20:58:36 10° S 21:04:13 89° W 21:10:02 10° N
Cosmos 2184 Rocket 4.0 20:58:26 10° N 21:04:45 76° E 21:10:57 10° S
Meteor 1-29 2.7 21:01:47 10° NNE 21:05:09 79° ESE 21:08:30 10° S
Cosmos 1437 Rocket 4.0 21:05:25 10° NNE 21:08:35 24° ENE 21:09:18 22° E
Cosmos 1943 Rocket 4.4 21:06:28 10° NW 21:10:34 21° W 21:14:37 10° SSW
Resurs 01 Rocket 3.3 21:08:12 10° SSW 21:12:10 32° W 21:16:09 10° NW
Spot 1 4.0 21:11:22 19° SSE 21:14:37 80° ENE 21:18:55 10° N
Hubble Space Telescope 1.3 21:12:10 10° SW 21:16:00 38° SSE 21:17:02 32° SE
GENESIS II 4.2 21:12:17 10° NNW 21:16:11 76° WSW 21:18:06 28° SSE
Helios 1A 3.1 21:18:20 19° S 21:21:22 74° W 21:25:33 10° NNW
ARGOS 4.5 21:20:51 21° E 21:22:26 24° ENE 21:26:38 10° NNE
Nadezhda 1 Rocket 4.2 21:16:41 10° S 21:23:00 74° W 21:29:25 10° N
Aurora 2 Rocket 4.5 21:26:59 10° W 21:33:37 44° S 21:37:49 28° SE
Cosmos 1624 Rocket 4.2 21:28:38 10° N 21:33:50 55° ENE 21:35:41 37° SE
Cosmos 2228 4.4 21:32:50 10° NNE 21:35:49 22° ENE 21:35:49 22° ENE
Cosmos 921 Rocket 3.9 21:32:42 10° N 21:36:42 33° ENE 21:37:02 32° E
H-2A R/B 3.6 21:38:01 18° ENE 21:38:23 19° ENE 21:41:47 10° NNE
Envisat 4.2 21:43:38 13° SSW 21:47:43 37° W 21:52:25 10° NNW
CZ-3A R/B 3.7 21:43:14 10° WSW 21:47:43 22° WNW 21:49:48 10° N
Cosmos 2154 Rocket 4.0 21:42:51 10° N 21:49:13 89° W 21:52:35 30° S
Cosmos 1892 Rocket 3.5 21:49:00 40° S 21:50:33 84° W 21:54:58 10° N
ASTRO E2 4.3 21:49:57 10° W 21:52:37 24° SW 21:52:37 24° SW
Cosmos 2056 Rocket 3.3 21:48:20 10° NNW 21:53:29 81° ENE 21:54:40 54° SSE
YAOGAN 6 3.3 21:54:21 42° WSW 21:54:48 45° W 21:58:10 10° NNW
Terra 4.0 21:55:30 13° ENE 21:55:30 13° ENE 21:57:05 10° NE
Cosmos 2082 Rocket 2.1 21:50:34 12° SSW 21:55:55 87° WNW 22:01:36 10° NNE
Cosmos 2278 3.7 21:58:37 10° NNW 22:04:17 64° ENE 22:05:10 55° ESE
SPOT 5 2.8 22:07:20 56° NE 22:07:20 56° NE 22:11:13 10° N
Cosmos 1606 Rocket 3.7 22:02:59 10° NNW 22:07:15 63° W 22:07:44 58° SW
SL-24 DEB 4.1 22:12:28 85° ENE 22:12:28 85° ENE 22:17:04 10° N
Cosmos 839 Rocket 4.5 22:05:51 10° NNW 22:12:48 76° ENE 22:15:28 47° SE
SL-08 RB Rocket 4.0 22:16:19 56° NE 22:16:19 56° NE 22:20:09 10° N
Cosmos 1726 Rocket 3.8 22:11:55 10° NNW 22:16:09 60° W 22:16:14 60° W
Cosmos 1656 3.7 22:12:59 10° N 22:18:22 57° ENE 22:18:29 57° ENE
Cosmos 1697 Rocket 3.3 22:14:26 10° N 22:19:38 39° ENE 22:19:38 39° ENE
MOS 1-B Rocket 4.0 22:19:43 50° SSW 22:21:12 71° WSW 22:27:29 10° NNW
Timation 2 Rocket 3.9 22:20:08 41° SSW 22:22:35 89° ESE 22:28:50 10° NNE
ERS-1 Rocket 3.8 22:21:26 37° SW 22:22:38 43° W 22:27:24 10° NNW
MetOp-A 4.4 22:22:43 53° SW 22:23:39 62° WSW 22:28:57 10° NNW
Cosmos 2369 3.6 22:19:09 10° NNW 22:24:53 84° WSW 22:25:22 75° S
Cosmos 2341 Rocket 4.4 22:18:57 10° NNW 22:25:12 62° W 22:27:24 40° SSW
Cosmos 1452 Rocket 3.7 22:20:06 10° N 22:24:59 60° NE 22:24:59 60° NE
Cosmos 1833 Rocket 3.6 22:23:55 12° SW 22:28:51 46° WNW 22:34:14 10° N
SPOT 1/Viking Rocket 3.5 22:30:09 72° NE 22:30:09 72° NE 22:34:58 10° N
Cosmos 2218 Rocket 3.8 22:27:15 10° N 22:33:25 75° E 22:33:41 74° ESE
OAO 2 Rocket 3.7 22:29:35 10° WNW 22:33:36 59° W 22:33:36 59° W
SL-24 R/B - RUBIN 2 4.4 22:33:05 55° SSW 22:34:44 87° ESE 22:41:25 10° NNE
Cosmos 2058 Rocket 3.9 22:31:56 10° NNW 22:35:48 47° WNW 22:35:48 47° WNW
H-2A R/B 3.7 22:48:48 29° NNE 22:48:48 29° NNE 22:51:18 10° N
Nadezhda 3 Rocket 4.4 22:53:47 53° NE 22:53:47 53° NE 22:59:01 10° NNE
USA 229 DEB 4.3 22:52:22 10° NNW 22:59:16 47° ENE 22:59:43 46° ENE
USA 229 4.3 22:52:29 10° NNW 22:59:22 46° ENE 22:59:49 46° ENE
ARGOS 4.3 23:02:22 34° W 23:02:24 34° W 23:07:18 10° NW
Cosmos 1980 Rocket 2.9 23:03:20 10° NNW 23:07:36 48° NNE 23:07:36 48° NNE
H-2A R/B 3.4 23:18:38 32° WNW 23:18:38 32° WNW 23:22:04 10° NNW
Cosmos 2322 Rocket 3.9 23:16:03 10° N 23:19:28 24° NE 23:19:28 24° NE
Terra 3.6 23:34:23 28° NW 23:34:23 28° NW 23:36:50 10° NNW
Lacrosse 5 rocket 4.4 23:33:50 10° N 23:35:12 13° NNE 23:35:12 13° NNE
